Content
SEND FEEDBACK

Daily
Averages
Monthly
Summary
United States of America

PARLIN, COLORADO


Home > North America > United States > Colorado
Elevation: 8446 feet     Latitude: 38 26N     Longitude: 106 46W

WEATHER
 
SELECT A DAY
Number of Records: 448,013;   Date Range: 1/1/95 - 8/30/14
 
SHARE

PRINT THIS DATA

[ ← Previous Day ]
WEATHER ALMANAC - JANUARY 19, 2013
[ Next Day → ]
[ °C ]   °F
Weather ElementAverageHighLow
Temperature-2.2 °F19.4 °F (2:55 pm)-18.4 °F (8:15 am)
Dewpoint-8.3 °F3.2 °F (2:55 pm)-29.2 °F (2:15 am)
Humidity59.2 %100 % (12:56 am)28 % (11:15 am)
Barometer30.48 in30.58 in (9:55 am)30.42 in (12:35 am)
Wind Speed0.9 mph4.6 mph (4:15 am)
Weather ElementAverage
Visibility9.8 mi
Wind DirectionNNE (36.7 °)

Weather ElementTotal
Precipitation---
Heating Degree Days64.5 (Base 65)
Averaged from 67 records on January 19, 2013
WEATHER CONDITIONS BREAKOUT
WIND DIRECTION BREAKOUT
WEATHER BY HOUR - JANUARY 19, 2013
[ °C ]   °F
Local TimeTemperatureDewpointHumidityBarometerVisibilityWind DirectionWind SpeedGust SpeedPrecipitationEventsConditions
12:35 AM-7.6 °F-16.6 °F65 %30.42 in7.0 miCalmClear
12:56 AM-9.4 °F-9.4 °F100 %30.42 in10.0 miCalmClear
1:15 AM-13.0 °F-27.4 °F49 %30.43 in10.0 miCalmClear
1:35 AM-11.2 °F-13.0 °F92 %30.43 in10.0 miCalmClear
1:55 AM-9.4 °F-20.2 °F59 %30.43 in10.0 miCalmClear
2:15 AM-11.2 °F-29.2 °F41 %30.43 in10.0 miCalmClear
2:35 AM-11.2 °F0.0 °F30.44 in10.0 miCalmClear
2:55 AM-11.2 °F0.0 °F30.44 in10.0 miCalmClear
3:15 AM-14.8 °F0.0 °F30.44 in10.0 miCalmClear
3:35 AM-11.2 °F0.0 °F30.44 in10.0 miCalmClear
3:55 AM-11.2 °F-27.4 °F45 %30.44 in10.0 miCalmClear
4:15 AM-11.2 °F-25.6 °F49 %30.46 in10.0 miENE (70°)4.6 mphClear
4:35 AM-13.0 °F0.0 °F30.47 in10.0 miCalmClear
4:55 AM-14.8 °F0.0 °F30.46 in10.0 miCalmClear
5:15 AM-13.0 °F0.0 °F30.47 in10.0 miCalmClear
5:35 AM-14.8 °F0.0 °F30.47 in10.0 miCalmClear
5:55 AM-16.6 °F0.0 °F30.48 in10.0 miCalmClear
6:15 AM-14.8 °F0.0 °F30.48 in10.0 miCalmClear
6:35 AM-14.8 °F0.0 °F30.48 in10.0 miCalmClear
6:55 AM-16.6 °F0.0 °F30.49 in10.0 miCalmClear
7:15 AM-14.8 °F0.0 °F30.50 in10.0 miNE (50°)3.5 mphClear
7:35 AM-14.8 °F-29.2 °F48 %30.51 in10.0 miCalmClear
7:55 AM-16.6 °F0.0 °F30.52 in10.0 miCalmClear
8:15 AM-18.4 °F0.0 °F30.53 in10.0 miCalmClear
8:35 AM-14.8 °F-18.4 °F84 %30.55 in10.0 miCalmClear
8:55 AM-14.8 °F-27.4 °F53 %30.55 in10.0 miCalmScattered Clouds
9:15 AM-11.2 °F-20.2 °F64 %30.57 in10.0 miSE (140°)3.5 mphMostly Cloudy
9:35 AM-9.4 °F-18.4 °F65 %30.57 in10.0 miCalmScattered Clouds
9:55 AM-5.8 °F-13.0 °F71 %30.58 in10.0 miSouth (190°)3.5 mphClear
10:15 AM-2.2 °F-13.0 °F60 %30.58 in10.0 miSW (230°)3.5 mphClear
10:35 AM-0.4 °F0.0 °F30.57 in10.0 miWest (260°)4.6 mphClear
10:55 AM1.4 °F-20.2 °F36 %30.56 in10.0 miWest (270°)3.5 mphClear
11:15 AM3.2 °F-23.8 °F28 %30.54 in10.0 miCalmClear
11:35 AM6.8 °F-18.4 °F31 %30.54 in10.0 miENE (70°)4.6 mphClear
11:55 AM5.0 °F-20.2 °F30 %30.51 in10.0 miEast (90°)4.6 mphClear
12:15 PM6.8 °F-14.8 °F37 %30.50 in10.0 miESE (110°)3.5 mphClear
12:35 PM8.6 °F-7.6 °F48 %30.49 in10.0 miCalmClear
12:55 PM10.4 °F-7.6 °F44 %30.48 in10.0 miCalmClear
1:15 PM10.4 °F-0.4 °F62 %30.47 in10.0 miCalmClear
1:35 PM12.2 °F-2.2 °F53 %30.46 in10.0 miCalmClear
1:55 PM12.2 °F-0.4 °F57 %30.45 in10.0 miCalmClear
2:15 PM15.8 °F-0.4 °F49 %30.45 in10.0 miESE (120°)3.5 mphClear
2:35 PM15.8 °F1.4 °F53 %30.45 in10.0 miCalmClear
2:55 PM19.4 °F3.2 °F49 %30.45 in10.0 miCalmClear
3:15 PM19.4 °F1.4 °F46 %30.45 in10.0 miCalmClear
3:35 PM17.6 °F-0.4 °F45 %30.45 in10.0 miCalmClear
4:35 PM17.6 °F1.4 °F49 %30.44 in10.0 miCalmClear
4:55 PM17.6 °F1.4 °F49 %30.44 in10.0 miCalmClear
5:15 PM15.8 °F1.4 °F53 %30.44 in10.0 miCalmClear
5:35 PM10.4 °F-2.2 °F57 %30.44 in10.0 miNorth (350°)4.6 mphClear
5:55 PM12.2 °F3.2 °F67 %30.44 in10.0 miNorth (350°)3.5 mphClear
6:15 PM10.4 °F-0.4 °F62 %30.45 in10.0 miNE (40°)3.5 mphClear
6:55 PM6.8 °F-0.4 °F72 %30.46 in10.0 miCalmClear
7:15 PM6.8 °F-2.2 °F67 %30.46 in10.0 miCalmClear
7:35 PM5.0 °F-5.8 °F61 %30.46 in10.0 miCalmClear
8:15 PM1.4 °F-9.4 °F61 %30.47 in10.0 miCalmClear
8:35 PM1.4 °F-4.0 °F78 %30.47 in10.0 miCalmClear
8:55 PM1.4 °F-4.0 °F78 %30.47 in10.0 miCalmClear
9:15 PM-2.2 °F-18.4 °F46 %30.47 in10.0 miCalmClear
9:35 PM-2.2 °F-2.2 °F100 %30.47 in7.0 miCalmClear
9:55 PM-2.2 °F-9.4 °F71 %30.48 in5.0 miCalmClear
10:15 PM-7.6 °F-23.8 °F45 %30.48 in10.0 miCalmClear
10:35 PM-5.8 °F-11.2 °F77 %30.48 in10.0 miCalmClear
10:55 PM-5.8 °F-9.4 °F84 %30.48 in10.0 miCalmClear
11:15 PM-7.6 °F-18.4 °F59 %30.48 in10.0 miENE (70°)3.5 mphClear
11:35 PM-7.6 °F-11.2 °F84 %30.48 in10.0 miNE (50°)4.6 mphClear
11:55 PM-5.8 °F-9.4 °F84 %30.48 in10.0 miCalmClear
Hourly data recorded from KGUC, located miles away from Parlin, Colorado







STORIES FROM OUR PARTNERS